Wind_Speed
51 52 52 53 54 54 54 54 55 54 54 55 56 58 59 58 56 56 55 53 52 51 50 49 51 53 56 58 59 60 61 61 61 61 58 54 53 51 50 50 48 45
53 54 55 56 56 56 56 55 55 55 55 54 55 57 59 59 58 57 56 55 54 54 54 53 52 53 56 58 58 59 61 62 61 60 58 55 54 53 52 53 51 48
56 57 57 58 58 58 57 56 56 55 55 54 54 55 57 59 59 57 55 55 54 55 57 58 56 56 57 58 59 59 60 62 63 61 57 55 55 56 55 55 54 51
59 60 60 60 61 60 59 58 56 56 55 54 53 53 54 56 58 58 56 54 54 54 57 59 58 58 60 60 61 62 62 64 65 64 60 57 57 58 58 57 55 54
61 62 63 63 62 62 61 60 57 56 55 54 52 52 53 54 55 56 55 54 54 54 56 57 57 58 60 62 63 64 65 66 67 66 62 59 58 59 60 59 57 55
62 63 64 64 64 63 62 61 58 56 54 53 52 51 51 53 54 54 54 54 55 56 56 57 58 58 59 61 63 65 65 66 67 67 64 62 61 60 61 61 60 57
63 64 64 64 64 63 62 61 58 56 54 53 52 51 50 50 52 53 53 54 55 56 57 57 58 59 59 59 60 63 66 66 66 65 65 65 63 62 62 63 62 60
64 65 65 65 64 63 62 61 58 55 53 51 50 50 49 48 50 52 53 54 54 56 56 57 57 57 59 59 58 60 64 66 67 66 66 67 66 64 63 64 64 62
66 67 66 66 64 63 61 60 58 54 52 51 49 47 47 47 48 50 53 54 54 55 56 57 57 56 56 58 59 59 60 62 65 67 68 69 68 66 64 64 64 62
68 69 68 67 65 63 61 59 57 54 51 50 48 45 44 45 47 49 52 53 54 55 56 57 58 58 57 57 58 59 59 59 61 66 69 70 69 67 65 64 64 62
70 70 70 68 66 63 61 59 57 53 50 49 48 45 43 43 45 47 49 52 53 54 55 57 58 59 59 58 58 60 61 60 60 63 66 68 69 69 66 65 65 64
71 72 71 69 66 63 60 58 56 53 50 47 46 45 42 41 44 45 47 49 51 53 54 56 58 59 59 58 59 60 62 62 62 63 65 67 69 69 67 66 67 66
73 72 71 69 66 63 60 57 54 52 49 46 45 44 42 40 41 43 44 46 49 51 53 55 57 59 59 59 59 59 61 62 64 65 67 68 69 69 68 67 68 67
74 73 71 68 65 62 60 56 53 51 48 44 42 42 41 40 39 40 41 43 45 48 51 53 56 58 59 59 59 60 61 63 64 66 68 70 71 70 68 68 68 67
76 74 71 67 63 60 58 56 52 49 46 42 40 40 40 39 38 38 39 40 42 46 48 51 55 57 58 59 59 60 62 62 64 66 68 71 74 73 70 68 68 67
77 74 70 66 61 58 56 55 51 47 45 41 39 39 39 38 37 37 37 37 40 43 46 50 54 57 58 58 59 61 62 62 63 65 67 70 74 75 72 69 68 67
77 73 68 64 60 56 53 52 50 46 43 41 39 39 39 37 36 35 34 35 38 41 45 49 53 55 56 58 59 61 61 61 62 64 65 68 73 75 72 70 68 67
77 72 67 62 59 56 51 49 48 46 43 41 39 38 38 36 35 34 33 33 36 40 44 47 51 53 55 56 59 60 60 60 62 63 64 66 71 73 72 70 68 67
77 72 65 61 58 55 51 48 45 44 43 41 39 38 37 36 35 34 32 33 36 39 43 46 49 51 53 55 57 58 59 59 60 62 63 65 69 72 72 71 69 68
76 72 65 60 57 54 51 47 44 42 41 41 40 38 36 35 35 34 32 33 36 40 43 46 48 50 52 53 55 56 56 57 59 60 61 64 67 71 73 72 70 69
75 71 66 61 57 54 50 47 44 42 40 40 40 37 35 35 35 34 32 34 38 41 43 45 47 49 50 51 52 53 54 55 57 59 60 62 65 69 73 74 72 70
74 70 65 61 58 53 49 46 44 42 39 39 39 37 34 34 36 34 33 35 39 42 43 45 47 48 49 50 51 51 52 53 55 57 57 59 63 68 72 75 74 71
72 68 64 61 57 53 48 44 42 41 38 37 38 37 34 34 36 36 34 36 40 43 43 45 46 48 49 50 50 51 51 52 53 54 54 55 59 64 70 74 75 73
71 66 63 59 56 52 48 44 41 40 38 36 36 36 35 34 36 38 36 36 40 44 45 46 47 48 49 50 51 52 53 54 55 54 52 52 55 59 65 70 73 74
69 64 61 58 55 52 48 44 41 39 37 35 34 35 35 34 36 39 39 37 39 45 47 48 47 47 48 49 50 52 53 55 56 55 52 51 52 55 60 66 71 74
67 62 59 57 54 50 47 44 41 38 36 34 33 33 35 35 36 39 41 39 39 43 48 49 49 47 47 49 49 50 51 52 52 53 52 48 49 54 57 61 67 73
Wind_Direction
293 291 290 288 287 285 283 281 279 276 272 269 266 264 262 260 258 256 255 253 250 248 247 245 245 245 242 238 236 236 236 236 237 236 234 234 237 235 229 227 227 228
295 293 292 290 289 287 286 284 282 279 275 271 267 264 263 261 259 256 254 253 251 249 247 245 243 243 242 240 237 235 235 236 237 236 234 233 235 235 231 228 226 227
297 296 294 293 292 290 289 287 284 281 278 273 269 265 262 261 260 258 255 252 250 250 247 244 242 241 241 240 239 237 235 235 236 235 233 234 236 235 232 228 225 226
301 299 298 296 295 294 292 290 287 283 280 275 271 267 263 260 258 258 256 252 250 248 246 243 241 240 239 239 240 239 237 235 235 235 235 236 237 234 232 229 225 224
303 301 300 299 298 297 295 293 290 286 282 277 272 267 263 260 258 256 255 253 250 248 245 242 240 238 237 237 238 239 238 236 234 234 234 235 235 233 231 228 225 223
303 302 301 300 300 299 297 295 292 288 284 279 274 268 262 259 257 255 253 251 250 248 246 244 241 239 237 237 237 237 238 237 234 232 232 232 232 231 230 228 226 224
305 304 303 302 302 301 299 296 293 290 285 280 275 270 264 258 255 253 251 249 248 247 246 245 243 240 236 234 235 236 236 236 235 232 229 231 231 229 228 228 227 225
308 307 306 305 304 303 301 298 295 291 287 281 275 270 266 259 254 251 250 248 246 245 245 244 243 239 234 232 233 234 235 235 235 232 228 229 230 229 227 227 227 226
312 311 310 309 308 306 304 300 297 293 289 283 276 270 266 261 254 250 248 247 245 244 243 243 242 239 234 233 233 234 235 235 235 234 230 228 228 229 227 226 226 225
314 314 313 312 311 308 306 302 298 295 291 285 278 271 265 260 254 249 246 245 244 243 242 242 241 240 237 235 234 234 235 236 234 234 232 228 226 227 227 225 224 223
317 316 315 315 313 310 307 303 300 296 292 286 280 274 267 260 255 250 246 243 243 242 241 240 240 240 238 235 234 234 235 236 234 233 232 229 225 225 225 223 222 221
318 318 317 316 315 312 309 305 301 298 294 288 282 276 269 261 255 251 247 242 241 239 239 238 238 237 237 235 233 233 235 236 233 231 231 229 225 223 222 220 219 220
319 318 317 317 315 313 310 307 304 300 295 290 285 278 271 263 256 252 249 244 240 238 237 236 235 235 235 233 232 231 233 234 232 230 230 229 225 222 221 219 218 219
320 319 318 317 316 315 312 309 306 302 297 292 286 280 272 265 259 254 250 246 241 238 235 234 233 233 232 231 230 229 229 231 231 229 228 228 225 222 220 218 217 218
321 320 319 317 316 315 313 310 308 304 299 293 287 281 274 267 261 256 251 247 243 238 234 232 231 231 230 229 228 228 228 230 230 229 227 226 225 223 220 217 216 216
322 322 320 318 316 315 313 310 308 304 299 294 288 282 275 269 263 259 254 249 243 238 234 231 229 229 228 227 227 227 228 229 229 228 226 225 224 223 221 217 215 215
322 322 320 318 315 314 313 310 307 304 299 293 288 283 278 272 266 262 257 250 244 238 234 230 228 227 226 225 225 226 227 228 228 227 226 224 223 222 220 218 216 215
322 322 321 317 315 314 313 310 307 303 298 293 288 283 279 274 268 264 258 251 244 238 234 231 228 226 224 223 224 225 226 227 227 226 226 224 221 220 219 217 216 215
322 322 320 317 314 313 312 310 306 302 297 292 288 283 279 274 268 263 257 249 242 236 233 230 227 226 224 222 223 224 225 226 226 226 226 224 220 218 217 216 216 215
322 321 319 316 313 311 310 309 306 301 296 290 286 283 279 273 267 261 254 245 239 234 231 228 227 226 224 223 222 223 224 224 225 225 226 224 221 219 218 216 215 215
321 320 318 316 312 310 309 307 305 301 295 289 284 281 276 270 263 257 249 240 235 232 230 228 226 225 225 223 223 223 224 224 224 224 225 224 222 220 218 216 215 214
321 319 317 315 312 309 308 306 304 301 295 287 282 278 272 265 259 253 244 235 233 232 229 228 227 226 224 223 223 224 225 225 225 224 224 225 225 223 220 217 215 214
320 318 315 313 311 308 306 304 302 298 293 285 279 274 268 260 255 250 242 233 230 229 228 226 226 225 224 223 223 224 225 226 227 225 224 225 227 226 223 220 217 216
319 317 314 311 310 307 304 302 300 296 291 284 275 270 264 256 249 247 243 233 228 227 226 225 224 224 223 223 223 224 225 227 228 228 226 226 227 229 227 224 220 218
318 316 312 310 309 306 303 301 298 294 289 282 273 266 259 251 243 242 243 236 227 225 224 223 224 223 222 222 223 224 226 228 229 231 231 229 229 229 228 227 225 222
317 314 311 309 307 304 301 299 296 292 287 281 271 262 255 247 238 237 241 239 230 226 224 223 223 224 223 223 223 224 226 228 229 231 231 231 232 231 227 227 228 226
Height
10824 10821 10818 10815 10812 10808 10806 10803 10801 10800 10800 10800 10798 10796 10795 10795 10796 10796 10797 10798 10800 10801 10802 10804 10806 10807 10808 10809 10812 10815 10819 10822 10824 10826 10830 10834 10835 10838 10844 10847 10851 10854
10816 10813 10810 10807 10803 10800 10798 10795 10793 10791 10790 10789 10789 10788 10786 10785 10786 10788 10789 10790 10792 10794 10794 10795 10797 10799 10801 10803 10806 10810 10813 10816 10819 10821 10825 10829 10831 10834 10838 10842 10846 10850
10807 10804 10800 10797 10793 10791 10788 10786 10783 10781 10779 10778 10779 10779 10778 10777 10777 10778 10780 10782 10784 10785 10785 10786 10789 10791 10793 10796 10800 10804 10807 10810 10812 10815 10820 10824 10826 10829 10832 10836 10841 10845
10797 10793 10790 10787 10783 10780 10777 10775 10773 10771 10769 10768 10768 10768 10768 10768 10768 10769 10770 10772 10774 10775 10776 10778 10780 10783 10786 10789 10793 10797 10800 10803 10805 10809 10815 10819 10820 10823 10826 10830 10836 10840
10787 10783 10779 10776 10773 10769 10766 10764 10761 10760 10758 10756 10757 10758 10757 10758 10759 10760 10762 10763 10764 10766 10767 10770 10773 10776 10779 10781 10785 10789 10792 10796 10798 10802 10808 10811 10813 10816 10820 10825 10830 10834
10778 10774 10770 10766 10762 10759 10756 10753 10750 10748 10746 10745 10745 10746 10747 10747 10748 10750 10752 10754 10755 10756 10758 10761 10765 10769 10772 10775 10778 10781 10784 10787 10790 10795 10800 10803 10805 10809 10813 10819 10824 10828
10770 10766 10761 10757 10752 10749 10745 10742 10739 10737 10736 10734 10733 10734 10735 10736 10738 10739 10741 10743 10745 10746 10748 10752 10755 10759 10763 10767 10770 10772 10775 10778 10782 10787 10792 10794 10797 10802 10807 10812 10817 10822
10761 10756 10751 10747 10742 10738 10734 10730 10728 10727 10725 10724 10723 10723 10723 10725 10727 10728 10730 10732 10734 10736 10739 10742 10745 10749 10754 10759 10762 10764 10766 10769 10773 10779 10784 10786 10790 10795 10801 10806 10811 10817
10751 10746 10741 10736 10732 10727 10723 10719 10717 10715 10714 10713 10712 10713 10713 10715 10716 10718 10719 10721 10723 10726 10730 10732 10735 10740 10745 10750 10753 10756 10759 10763 10767 10771 10775 10779 10784 10790 10795 10800 10806 10811
10742 10736 10730 10726 10721 10717 10713 10709 10706 10704 10703 10702 10702 10703 10704 10704 10705 10707 10709 10711 10713 10716 10720 10723 10726 10731 10736 10741 10745 10748 10752 10757 10760 10763 10766 10771 10778 10784 10788 10794 10800 10806
10732 10727 10721 10716 10711 10707 10703 10699 10696 10694 10693 10692 10691 10692 10694 10694 10695 10696 10699 10701 10704 10707 10710 10714 10717 10721 10727 10733 10738 10741 10745 10749 10753 10756 10758 10764 10771 10777 10782 10787 10792 10799
10724 10719 10712 10707 10702 10697 10693 10690 10687 10685 10683 10683 10682 10682 10684 10685 10685 10687 10689 10692 10695 10698 10701 10704 10708 10712 10717 10723 10729 10734 10737 10741 10745 10748 10751 10756 10763 10769 10775 10780 10785 10791
10717 10711 10705 10699 10693 10688 10684 10681 10678 10676 10674 10674 10673 10673 10674 10676 10677 10678 10680 10683 10686 10689 10692 10695 10699 10703 10708 10714 10721 10726 10730 10732 10736 10740 10744 10749 10755 10762 10768 10774 10779 10785
10710 10705 10698 10691 10686 10680 10676 10673 10670 10667 10666 10666 10665 10665 10665 10667 10669 10670 10672 10674 10677 10680 10683 10687 10691 10695 10699 10705 10712 10717 10721 10724 10728 10733 10737 10742 10748 10755 10762 10768 10773 10778
10703 10697 10691 10684 10679 10674 10669 10666 10663 10660 10658 10658 10657 10657 10657 10659 10661 10662 10664 10667 10669 10671 10675 10678 10682 10686 10691 10697 10703 10708 10712 10717 10721 10726 10731 10735 10741 10747 10754 10760 10766 10772
10694 10689 10683 10677 10672 10668 10663 10659 10656 10654 10652 10651 10650 10649 10650 10651 10653 10655 10657 10659 10661 10663 10666 10670 10673 10678 10683 10689 10695 10700 10705 10710 10715 10719 10724 10728 10733 10739 10746 10753 10760 10766
10687 10682 10676 10670 10666 10662 10658 10653 10650 10648 10646 10645 10644 10643 10643 10645 10647 10649 10650 10652 10654 10656 10659 10662 10666 10671 10676 10682 10687 10692 10698 10704 10708 10713 10717 10721 10726 10733 10740 10747 10753 10759
10680 10675 10670 10664 10659 10655 10652 10648 10645 10642 10641 10639 10638 10637 10637 10639 10640 10642 10644 10646 10648 10650 10652 10656 10660 10665 10670 10675 10680 10686 10692 10697 10702 10706 10711 10715 10720 10727 10734 10740 10746 10752
10672 10668 10663 10658 10653 10649 10646 10642 10640 10637 10635 10634 10632 10631 10632 10633 10635 10636 10638 10640 10642 10644 10647 10651 10655 10660 10665 10670 10676 10681 10687 10691 10696 10700 10704 10709 10715 10721 10727 10733 10739 10745
10665 10660 10656 10652 10647 10643 10640 10636 10634 10632 10629 10628 10627 10626 10627 10628 10629 10631 10633 10635 10637 10639 10642 10646 10650 10655 10660 10666 10672 10677 10682 10687 10691 10695 10699 10704 10710 10715 10721 10727 10733 10739
10657 10652 10649 10645 10641 10637 10634 10631 10628 10626 10624 10622 10621 10621 10622 10623 10624 10626 10628 10630 10632 10635 10638 10642 10647 10652 10657 10663 10668 10673 10678 10682 10686 10690 10695 10700 10705 10709 10714 10720 10726 10732
10651 10645 10641 10638 10634 10631 10628 10625 10622 10620 10619 10617 10615 10615 10616 10617 10618 10621 10624 10626 10628 10632 10636 10640 10644 10649 10654 10660 10665 10669 10674 10677 10681 10686 10691 10695 10698 10702 10706 10712 10719 10726
10645 10640 10635 10631 10628 10625 10622 10620 10617 10615 10613 10612 10610 10610 10611 10612 10613 10615 10619 10622 10625 10629 10633 10637 10642 10646 10651 10656 10661 10665 10669 10672 10675 10680 10686 10689 10692 10695 10701 10707 10714 10721
10638 10633 10629 10625 10621 10619 10616 10613 10611 10609 10607 10607 10606 10605 10606 10607 10609 10610 10614 10619 10622 10626 10630 10634 10638 10643 10648 10652 10657 10661 10665 10667 10670 10675 10680 10684 10687 10691 10695 10701 10707 10713
10631 10626 10621 10617 10614 10612 10609 10607 10605 10603 10602 10601 10601 10600 10601 10603 10605 10606 10609 10614 10619 10622 10626 10631 10635 10639 10645 10649 10653 10657 10660 10663 10667 10672 10676 10681 10684 10686 10690 10694 10699 10703
10625 10619 10614 10610 10607 10605 10603 10601 10598 10597 10596 10595 10595 10595 10596 10598 10601 10603 10605 10609 10615 10619 10623 10627 10631 10636 10641 10645 10649 10653 10656 10660 10665 10668 10673 10677 10678 10679 10683 10688 10690 10693